{"data":{"norad_id":62934,"intl_designator":"2025-028G","name":"KINEIS-2B","alt_names":[],"object_type":"PAYLOAD","status":"ACTIVE","operator":null,"country":"FR","launch_date":"2025-02-08","launch_site_code":"RLLB","launch_vehicle":null,"mission":null,"orbit_class":"UNKNOWN","rcs_meters":null,"size_class":null,"mass_kg":null,"dimensions":null,"purposes":[],"wikipedia_slug":null,"has_3d_model":false,"image_url":null,"decayed_at":null,"tle_current":{"epoch":"2026-05-25T02:49:16.752000Z","epoch_age_seconds":64899,"freshness":"FRESH","line1":"1 62934U 25028G   26145.11755500  .00001068  00000+0  17273-3 0  9990","line2":"2 62934  97.9680 198.3978 0002857 200.9025 159.2067 14.73313646 69261","mean_motion":14.73313646,"eccentricity":0.0002857,"inclination_deg":97.968,"raan_deg":198.3978,"arg_perigee_deg":200.9025,"mean_anomaly_deg":159.2067,"bstar":0.00017273,"rev_number":6926,"period_min":97.738862591109,"perigee_km":648.50140012493,"apogee_km":652.51756872613,"semimajor_km":7028.6464844255,"source":"CELESTRAK","updated_at":"2026-05-25T13:38:03.364127Z"}}}